Year,Month,Day,Hour,Minute,Value (Times are PST for temperature in C)
2008,02,14,00,00,0.20
2008,02,14,00,01,0.20
2008,02,14,00,02,0.20
2008,02,14,00,03,0.20
2008,02,14,00,04,0.10
2008,02,14,00,05,0.10
2008,02,14,00,06,0.10
2008,02,14,00,07,0.10
2008,02,14,00,08,0.10
2008,02,14,00,09,0.20
2008,02,14,00,10,0.20
2008,02,14,00,11,0.20
2008,02,14,00,12,0.20
2008,02,14,00,13,0.30
2008,02,14,00,14,0.30
2008,02,14,00,15,0.30
2008,02,14,00,16,0.30
2008,02,14,00,17,0.30
2008,02,14,00,18,0.30
2008,02,14,00,19,0.30
2008,02,14,00,20,0.20
2008,02,14,00,21,0.20
2008,02,14,00,22,0.20
2008,02,14,00,23,0.20
2008,02,14,00,24,0.20
2008,02,14,00,25,0.20
2008,02,14,00,26,0.20
2008,02,14,00,27,0.20
2008,02,14,00,28,0.20
2008,02,14,00,29,0.20
2008,02,14,00,30,0.20
2008,02,14,00,31,0.10
2008,02,14,00,32,0.10
2008,02,14,00,33,0.10
2008,02,14,00,34,0.10
2008,02,14,00,35,0.10
2008,02,14,00,36,0.00
2008,02,14,00,37,-0.10
2008,02,14,00,38,-0.10
2008,02,14,00,39,-0.10
2008,02,14,00,40,-0.10
2008,02,14,00,41,-0.10
2008,02,14,00,42,-0.10
2008,02,14,00,43,-0.10
2008,02,14,00,44,-0.10
2008,02,14,00,45,-0.10
2008,02,14,00,46,-0.10
2008,02,14,00,47,-0.10
2008,02,14,00,48,-0.10
2008,02,14,00,49,-0.20
2008,02,14,00,50,-0.20
2008,02,14,00,51,-0.20
2008,02,14,00,52,-0.20
2008,02,14,00,53,-0.30
2008,02,14,00,54,-0.30
2008,02,14,00,55,-0.30
2008,02,14,00,56,-0.40
2008,02,14,00,57,-0.40
2008,02,14,00,58,-0.40
2008,02,14,00,59,-0.40
2008,02,14,01,00,-0.40
2008,02,14,01,01,-0.40
2008,02,14,01,02,-0.40
2008,02,14,01,03,-0.40
2008,02,14,01,04,-0.40
2008,02,14,01,05,-0.30
2008,02,14,01,06,-0.30
2008,02,14,01,07,-0.30
2008,02,14,01,08,-0.30
2008,02,14,01,09,-0.30
2008,02,14,01,10,-0.30
2008,02,14,01,11,-0.30
2008,02,14,01,12,-0.30
2008,02,14,01,13,-0.40
2008,02,14,01,14,-0.40
2008,02,14,01,15,-0.40
2008,02,14,01,16,-0.40
2008,02,14,01,17,-0.40
2008,02,14,01,18,-0.40
2008,02,14,01,19,-0.40
2008,02,14,01,20,-0.40
2008,02,14,01,21,-0.40
2008,02,14,01,22,-0.40
2008,02,14,01,23,-0.40
2008,02,14,01,24,-0.40
2008,02,14,01,25,-0.40
2008,02,14,01,26,-0.50
2008,02,14,01,27,-0.60
2008,02,14,01,28,-0.60
2008,02,14,01,29,-0.60
2008,02,14,01,30,-0.60
2008,02,14,01,31,-0.60
2008,02,14,01,32,-0.60
2008,02,14,01,33,-0.60
2008,02,14,01,34,-0.60
2008,02,14,01,35,-0.60
2008,02,14,01,36,-0.60
2008,02,14,01,37,-0.70
2008,02,14,01,38,-0.70
2008,02,14,01,39,-0.70
2008,02,14,01,40,-0.70
2008,02,14,01,41,-0.70
2008,02,14,01,42,-0.70
2008,02,14,01,43,-0.70
2008,02,14,01,44,-0.70
2008,02,14,01,45,-0.70
2008,02,14,01,46,-0.70
2008,02,14,01,47,-0.80
2008,02,14,01,48,-0.80
2008,02,14,01,49,-0.80
2008,02,14,01,50,-0.90
2008,02,14,01,51,-0.90
2008,02,14,01,52,-0.90
2008,02,14,01,53,-0.90
2008,02,14,01,54,-0.90
2008,02,14,01,55,-1.00
2008,02,14,01,56,-1.10
2008,02,14,01,57,-1.10
2008,02,14,01,58,-1.10
2008,02,14,01,59,-1.10
2008,02,14,02,00,-1.10
2008,02,14,02,01,-1.10
2008,02,14,02,02,-1.10
2008,02,14,02,03,-1.10
2008,02,14,02,04,-1.10
2008,02,14,02,05,-1.10
2008,02,14,02,06,-1.10
2008,02,14,02,07,-1.10
2008,02,14,02,08,-1.10
2008,02,14,02,09,-1.10
2008,02,14,02,10,-1.00
2008,02,14,02,11,-1.00
2008,02,14,02,12,-1.00
2008,02,14,02,13,-0.90
2008,02,14,02,14,-0.90
2008,02,14,02,15,-0.90
2008,02,14,02,16,-0.90
2008,02,14,02,17,-0.90
2008,02,14,02,18,-0.90
2008,02,14,02,19,-0.90
2008,02,14,02,20,-0.80
2008,02,14,02,21,-0.80
2008,02,14,02,22,-0.80
2008,02,14,02,23,-0.70
2008,02,14,02,24,-0.70
2008,02,14,02,25,-0.70
2008,02,14,02,26,-0.70
2008,02,14,02,27,-0.70
2008,02,14,02,28,-0.70
2008,02,14,02,29,-0.70
2008,02,14,02,30,-0.70
2008,02,14,02,31,-0.70
2008,02,14,02,32,-0.70
2008,02,14,02,33,-0.80
2008,02,14,02,34,-0.80
2008,02,14,02,35,-0.80
2008,02,14,02,36,-0.80
2008,02,14,02,37,-0.90
2008,02,14,02,38,-0.90
2008,02,14,02,39,-0.90
2008,02,14,02,40,-0.90
2008,02,14,02,41,-0.90
2008,02,14,02,42,-0.90
2008,02,14,02,43,-0.90
2008,02,14,02,44,-0.90
2008,02,14,02,45,-0.80
2008,02,14,02,46,-0.80
2008,02,14,02,47,-0.80
2008,02,14,02,48,-0.80
2008,02,14,02,49,-0.80
2008,02,14,02,50,-0.80
2008,02,14,02,51,-0.80
2008,02,14,02,52,-0.80
2008,02,14,02,53,-0.80
2008,02,14,02,54,-0.70
2008,02,14,02,55,-0.70
2008,02,14,02,56,-0.70
2008,02,14,02,57,-0.70
2008,02,14,02,58,-0.70
2008,02,14,02,59,-0.70
2008,02,14,03,00,-0.70
2008,02,14,03,01,-0.60
2008,02,14,03,02,-0.60
2008,02,14,03,03,-0.60
2008,02,14,03,04,-0.60
2008,02,14,03,05,-0.60
2008,02,14,03,06,-0.60
2008,02,14,03,07,-0.60
2008,02,14,03,08,-0.60
2008,02,14,03,09,-0.70
2008,02,14,03,10,-0.70
2008,02,14,03,11,-0.70
2008,02,14,03,12,-0.70
2008,02,14,03,13,-0.70
2008,02,14,03,14,-0.70
2008,02,14,03,15,-0.70
2008,02,14,03,16,-0.70
2008,02,14,03,17,-0.70
2008,02,14,03,18,-0.70
2008,02,14,03,19,-0.70
2008,02,14,03,20,-0.70
2008,02,14,03,21,-0.70
2008,02,14,03,22,-0.60
2008,02,14,03,23,-0.60
2008,02,14,03,24,-0.60
2008,02,14,03,25,-0.60
2008,02,14,03,26,-0.60
2008,02,14,03,27,-0.60
2008,02,14,03,28,-0.60
2008,02,14,03,29,-0.60
2008,02,14,03,30,-0.60
2008,02,14,03,31,-0.60
2008,02,14,03,32,-0.70
2008,02,14,03,33,-0.70
2008,02,14,03,34,-0.70
2008,02,14,03,35,-0.70
2008,02,14,03,36,-0.70
2008,02,14,03,37,-0.70
2008,02,14,03,38,-0.70
2008,02,14,03,39,-0.70
2008,02,14,03,40,-0.70
2008,02,14,03,41,-0.70
2008,02,14,03,42,-0.80
2008,02,14,03,43,-0.80
2008,02,14,03,44,-0.80
2008,02,14,03,45,-0.80
2008,02,14,03,46,-0.80
2008,02,14,03,47,-0.80
2008,02,14,03,48,-0.80
2008,02,14,03,49,-0.70
2008,02,14,03,50,-0.70
2008,02,14,03,51,-0.70
2008,02,14,03,52,-0.70
2008,02,14,03,53,-0.70
2008,02,14,03,54,-0.70
2008,02,14,03,55,-0.70
2008,02,14,03,56,-0.80
2008,02,14,03,57,-0.80
2008,02,14,03,58,-0.80
2008,02,14,03,59,-0.80
2008,02,14,04,00,-0.80
2008,02,14,04,01,-0.80
2008,02,14,04,02,-0.90
2008,02,14,04,03,-0.90
2008,02,14,04,04,-0.80
2008,02,14,04,05,-0.80
2008,02,14,04,06,-0.80
2008,02,14,04,07,-0.80
2008,02,14,04,08,-0.80
2008,02,14,04,09,-0.80
2008,02,14,04,10,-0.80
2008,02,14,04,11,-0.70
2008,02,14,04,12,-0.70
2008,02,14,04,13,-0.70
2008,02,14,04,14,-0.70
2008,02,14,04,15,-0.70
2008,02,14,04,16,-0.70
2008,02,14,04,17,-0.70
2008,02,14,04,18,-0.70
2008,02,14,04,19,-0.70
2008,02,14,04,20,-0.70
2008,02,14,04,21,-0.70
2008,02,14,04,22,-0.70
2008,02,14,04,23,-0.70
2008,02,14,04,24,-0.70
2008,02,14,04,25,-0.70
2008,02,14,04,26,-0.70
2008,02,14,04,27,-0.70
2008,02,14,04,28,-0.70
2008,02,14,04,29,-0.60
2008,02,14,04,30,-0.60
2008,02,14,04,31,-0.60
2008,02,14,04,32,-0.60
2008,02,14,04,33,-0.60
2008,02,14,04,34,-0.50
2008,02,14,04,35,-0.40
2008,02,14,04,36,-0.40
2008,02,14,04,37,-0.40
2008,02,14,04,38,-0.40
2008,02,14,04,39,-0.40
2008,02,14,04,40,-0.30
2008,02,14,04,41,-0.30
2008,02,14,04,42,-0.20
2008,02,14,04,43,-0.20
2008,02,14,04,44,-0.20
2008,02,14,04,45,-0.20
2008,02,14,04,46,-0.20
2008,02,14,04,47,-0.30
2008,02,14,04,48,-0.30
2008,02,14,04,49,-0.20
2008,02,14,04,50,-0.20
2008,02,14,04,51,-0.20
2008,02,14,04,52,-0.20
2008,02,14,04,53,-0.20
2008,02,14,04,54,-0.20
2008,02,14,04,55,-0.20
2008,02,14,04,56,-0.30
2008,02,14,04,57,-0.30
2008,02,14,04,58,-0.30
2008,02,14,04,59,-0.30
2008,02,14,05,00,-0.30
2008,02,14,05,01,-0.30
2008,02,14,05,02,-0.30
2008,02,14,05,03,-0.20
2008,02,14,05,04,-0.20
2008,02,14,05,05,-0.20
2008,02,14,05,06,-0.20
2008,02,14,05,07,-0.20
2008,02,14,05,08,-0.20
2008,02,14,05,09,-0.20
2008,02,14,05,10,-0.20
2008,02,14,05,11,-0.20
2008,02,14,05,12,-0.10
2008,02,14,05,13,-0.10
2008,02,14,05,14,-0.10
2008,02,14,05,15,-0.10
2008,02,14,05,16,-0.10
2008,02,14,05,17,-0.10
2008,02,14,05,18,-0.10
2008,02,14,05,19,-0.10
2008,02,14,05,20,-0.10
2008,02,14,05,21,-0.10
2008,02,14,05,22,-0.10
2008,02,14,05,23,-0.10
2008,02,14,05,24,-0.10
2008,02,14,05,25,-0.10
2008,02,14,05,26,-0.10
2008,02,14,05,27,-0.10
2008,02,14,05,28,-0.10
2008,02,14,05,29,-0.10
2008,02,14,05,30,-0.10
2008,02,14,05,31,-0.10
2008,02,14,05,32,-0.10
2008,02,14,05,33,-0.10
2008,02,14,05,34,-0.10
2008,02,14,05,35,-0.10
2008,02,14,05,36,-0.10
2008,02,14,05,37,-0.10
2008,02,14,05,38,-0.10
2008,02,14,05,39,-0.10
2008,02,14,05,40,-0.10
2008,02,14,05,41,-0.10
2008,02,14,05,42,-0.10
2008,02,14,05,43,-0.10
2008,02,14,05,44,0.00
2008,02,14,05,45,0.10
2008,02,14,05,46,0.10
2008,02,14,05,47,0.10
2008,02,14,05,48,0.10
2008,02,14,05,49,0.10
2008,02,14,05,50,0.10
2008,02,14,05,51,0.10
2008,02,14,05,52,0.10
2008,02,14,05,53,0.10
2008,02,14,05,54,0.10
2008,02,14,05,55,0.10
2008,02,14,05,56,0.10
2008,02,14,05,57,0.10
2008,02,14,05,58,0.10
2008,02,14,05,59,0.10
2008,02,14,06,00,0.10
2008,02,14,06,01,0.10
2008,02,14,06,02,0.10
2008,02,14,06,03,0.10
2008,02,14,06,04,0.10
2008,02,14,06,05,0.10
2008,02,14,06,06,0.10
2008,02,14,06,07,0.20
2008,02,14,06,08,0.20
2008,02,14,06,09,0.20
2008,02,14,06,10,0.20
2008,02,14,06,11,0.20
2008,02,14,06,12,0.20
2008,02,14,06,13,0.20
2008,02,14,06,14,0.20
2008,02,14,06,15,0.20
2008,02,14,06,16,0.20
2008,02,14,06,17,0.20
2008,02,14,06,18,0.20
2008,02,14,06,19,0.20
2008,02,14,06,20,0.20
2008,02,14,06,21,0.20
2008,02,14,06,22,0.20
2008,02,14,06,23,0.20
2008,02,14,06,24,0.20
2008,02,14,06,25,0.20
2008,02,14,06,26,0.20
2008,02,14,06,27,0.20
2008,02,14,06,28,0.20
2008,02,14,06,29,0.20
2008,02,14,06,30,0.20
2008,02,14,06,31,0.20
2008,02,14,06,32,0.30
2008,02,14,06,33,0.30
2008,02,14,06,34,0.30
2008,02,14,06,35,0.30
2008,02,14,06,36,0.30
2008,02,14,06,37,0.30
2008,02,14,06,38,0.30
2008,02,14,06,39,0.30
2008,02,14,06,40,0.30
2008,02,14,06,41,0.30
2008,02,14,06,42,0.30
2008,02,14,06,43,0.30
2008,02,14,06,44,0.30
2008,02,14,06,45,0.30
2008,02,14,06,46,0.40
2008,02,14,06,47,0.40
2008,02,14,06,48,0.40
2008,02,14,06,49,0.40
2008,02,14,06,50,0.50
2008,02,14,06,51,0.50
2008,02,14,06,52,0.50
2008,02,14,06,53,0.40
2008,02,14,06,54,0.40
2008,02,14,06,55,0.40
2008,02,14,06,56,0.40
2008,02,14,06,57,0.40
2008,02,14,06,58,0.40
2008,02,14,06,59,0.40
2008,02,14,07,00,0.40
2008,02,14,07,01,0.40
2008,02,14,07,02,0.40
2008,02,14,07,03,0.40
2008,02,14,07,04,0.40
2008,02,14,07,05,0.40
2008,02,14,07,06,0.40
2008,02,14,07,07,0.40
2008,02,14,07,08,0.40
2008,02,14,07,09,0.40
2008,02,14,07,10,0.40
2008,02,14,07,11,0.40
2008,02,14,07,12,0.40
2008,02,14,07,13,0.40
2008,02,14,07,14,0.40
2008,02,14,07,15,0.40
2008,02,14,07,16,0.40
2008,02,14,07,17,0.40
2008,02,14,07,18,0.40
2008,02,14,07,19,0.50
2008,02,14,07,20,0.50
2008,02,14,07,21,0.50
2008,02,14,07,22,0.50
2008,02,14,07,23,0.60
2008,02,14,07,24,0.60
2008,02,14,07,25,0.60
2008,02,14,07,26,0.60
2008,02,14,07,27,0.60
2008,02,14,07,28,0.50
2008,02,14,07,29,0.50
2008,02,14,07,30,0.50
2008,02,14,07,31,0.50
2008,02,14,07,32,0.50
2008,02,14,07,33,0.50
2008,02,14,07,34,0.50
2008,02,14,07,35,0.50
2008,02,14,07,36,0.50
2008,02,14,07,37,0.60
2008,02,14,07,38,0.60
2008,02,14,07,39,0.60
2008,02,14,07,40,0.60
2008,02,14,07,41,0.60
2008,02,14,07,42,0.60
2008,02,14,07,43,0.60
2008,02,14,07,44,0.60
2008,02,14,07,45,0.70
2008,02,14,07,46,0.70
2008,02,14,07,47,0.70
2008,02,14,07,48,0.60
2008,02,14,07,49,0.60
2008,02,14,07,50,0.60
2008,02,14,07,51,0.60
2008,02,14,07,52,0.60
2008,02,14,07,53,0.60
2008,02,14,07,54,0.60
2008,02,14,07,55,0.60
2008,02,14,07,56,0.60
2008,02,14,07,57,0.60
2008,02,14,07,58,0.60
2008,02,14,07,59,0.60
2008,02,14,08,00,0.60
2008,02,14,08,01,0.70
2008,02,14,08,02,0.70
2008,02,14,08,03,0.70
2008,02,14,08,04,0.70
2008,02,14,08,05,0.70
2008,02,14,08,06,0.70
2008,02,14,08,07,0.70
2008,02,14,08,08,0.70
2008,02,14,08,09,0.70
2008,02,14,08,10,0.70
2008,02,14,08,11,0.70
2008,02,14,08,12,0.70
2008,02,14,08,13,0.70
2008,02,14,08,14,0.80
2008,02,14,08,15,0.80
2008,02,14,08,16,0.80
2008,02,14,08,17,0.80
2008,02,14,08,18,0.90
2008,02,14,08,19,0.90
2008,02,14,08,20,0.90
2008,02,14,08,21,0.90
2008,02,14,08,22,0.90
2008,02,14,08,23,0.90
2008,02,14,08,24,0.90
2008,02,14,08,25,0.90
2008,02,14,08,26,0.90
2008,02,14,08,27,0.90
2008,02,14,08,28,0.90
2008,02,14,08,29,0.90
2008,02,14,08,30,0.90
2008,02,14,08,31,0.90
2008,02,14,08,32,1.00
2008,02,14,08,33,1.00
2008,02,14,08,34,1.10
2008,02,14,08,35,1.10
2008,02,14,08,36,1.20
2008,02,14,08,37,1.20
2008,02,14,08,38,1.30
2008,02,14,08,39,1.30
2008,02,14,08,40,1.30
2008,02,14,08,41,1.30
2008,02,14,08,42,1.30
2008,02,14,08,43,1.30
2008,02,14,08,44,1.30
2008,02,14,08,45,1.30
2008,02,14,08,46,1.30
2008,02,14,08,47,1.30
2008,02,14,08,48,1.30
2008,02,14,08,49,1.30
2008,02,14,08,50,1.30
2008,02,14,08,51,1.30
2008,02,14,08,52,1.30
2008,02,14,08,53,1.30
2008,02,14,08,54,1.30
2008,02,14,08,55,1.30
2008,02,14,08,56,1.30
2008,02,14,08,57,1.30
2008,02,14,08,58,1.30
2008,02,14,08,59,1.30
2008,02,14,09,00,1.30
2008,02,14,09,01,1.30
2008,02,14,09,02,1.30
2008,02,14,09,03,1.30
2008,02,14,09,04,1.30
2008,02,14,09,05,1.30
2008,02,14,09,06,1.30
2008,02,14,09,07,1.30
2008,02,14,09,08,1.30
2008,02,14,09,09,1.30
2008,02,14,09,10,1.30
2008,02,14,09,11,1.30
2008,02,14,09,12,1.30
2008,02,14,09,13,1.30
2008,02,14,09,14,1.30
2008,02,14,09,15,1.30
2008,02,14,09,16,1.30
2008,02,14,09,17,1.30
2008,02,14,09,18,1.30
2008,02,14,09,19,1.30
2008,02,14,09,20,1.30
2008,02,14,09,21,1.30
2008,02,14,09,22,1.30
2008,02,14,09,23,1.30
2008,02,14,09,24,1.40
2008,02,14,09,25,1.40
2008,02,14,09,26,1.40
2008,02,14,09,27,1.40
2008,02,14,09,28,1.40
2008,02,14,09,29,1.50
2008,02,14,09,30,1.50
2008,02,14,09,31,1.50
2008,02,14,09,32,1.50
2008,02,14,09,33,1.60
2008,02,14,09,34,1.60
2008,02,14,09,35,1.60
2008,02,14,09,36,1.60
2008,02,14,09,37,1.60
2008,02,14,09,38,1.70
2008,02,14,09,39,1.70
2008,02,14,09,40,1.70
2008,02,14,09,41,1.70
2008,02,14,09,42,1.70
2008,02,14,09,43,1.80
2008,02,14,09,44,1.80
2008,02,14,09,45,1.80
2008,02,14,09,46,1.80
2008,02,14,09,47,1.80
2008,02,14,09,48,1.80
2008,02,14,09,49,1.70
2008,02,14,09,50,1.70
2008,02,14,09,51,1.80
2008,02,14,09,52,1.80
2008,02,14,09,53,1.80
2008,02,14,09,54,1.80
2008,02,14,09,55,1.80
2008,02,14,09,56,1.80
2008,02,14,09,57,1.80
2008,02,14,09,58,1.80
2008,02,14,09,59,1.80
2008,02,14,10,00,1.80
2008,02,14,10,01,1.80
2008,02,14,10,02,1.80
2008,02,14,10,03,1.80
2008,02,14,10,04,1.80
2008,02,14,10,05,1.80
2008,02,14,10,06,1.80
2008,02,14,10,07,1.80
2008,02,14,10,08,1.80
2008,02,14,10,09,1.80
2008,02,14,10,10,1.90
2008,02,14,10,11,1.90
2008,02,14,10,12,1.90
2008,02,14,10,13,2.00
2008,02,14,10,14,2.00
2008,02,14,10,15,2.00
2008,02,14,10,16,2.10
2008,02,14,10,17,2.10
2008,02,14,10,18,2.10
2008,02,14,10,19,2.10
2008,02,14,10,20,2.20
2008,02,14,10,21,2.20
2008,02,14,10,22,2.20
2008,02,14,10,23,2.20
2008,02,14,10,24,2.20
2008,02,14,10,25,2.20
2008,02,14,10,26,2.20
2008,02,14,10,27,2.20
2008,02,14,10,28,2.30
2008,02,14,10,29,2.30
2008,02,14,10,30,2.30
2008,02,14,10,31,2.40
2008,02,14,10,32,2.40
2008,02,14,10,33,2.40
2008,02,14,10,34,2.50
2008,02,14,10,35,2.50
2008,02,14,10,36,2.50
2008,02,14,10,37,2.50
2008,02,14,10,38,2.50
2008,02,14,10,39,2.50
2008,02,14,10,40,2.50
2008,02,14,10,41,2.50
2008,02,14,10,42,2.50
2008,02,14,10,43,2.60
2008,02,14,10,44,2.60
2008,02,14,10,45,2.60
2008,02,14,10,46,2.60
2008,02,14,10,47,2.60
2008,02,14,10,48,2.60
2008,02,14,10,49,2.60
2008,02,14,10,50,2.60
2008,02,14,10,51,2.60
2008,02,14,10,52,2.70
2008,02,14,10,53,2.70
2008,02,14,10,54,2.70
2008,02,14,10,55,2.70
2008,02,14,10,56,2.70
2008,02,14,10,57,2.70
2008,02,14,10,58,2.70
2008,02,14,10,59,2.80
2008,02,14,11,00,2.80
2008,02,14,11,01,2.80
2008,02,14,11,02,2.90
2008,02,14,11,03,2.90
2008,02,14,11,04,2.90
2008,02,14,11,05,2.90
2008,02,14,11,06,2.90
2008,02,14,11,07,2.90
2008,02,14,11,08,2.90
2008,02,14,11,09,3.00
2008,02,14,11,10,3.10
2008,02,14,11,11,3.10
2008,02,14,11,12,3.10
2008,02,14,11,13,3.10
2008,02,14,11,14,3.10
2008,02,14,11,15,3.10
2008,02,14,11,16,3.10
2008,02,14,11,17,3.10
2008,02,14,11,18,3.10
2008,02,14,11,19,3.10
2008,02,14,11,20,3.10
2008,02,14,11,21,3.10
2008,02,14,11,22,3.10
2008,02,14,11,23,3.10
2008,02,14,11,24,3.10
2008,02,14,11,25,3.10
2008,02,14,11,26,3.10
2008,02,14,11,27,3.10
2008,02,14,11,28,3.10
2008,02,14,11,29,3.10
2008,02,14,11,30,3.10
2008,02,14,11,31,3.10
2008,02,14,11,32,3.10
2008,02,14,11,33,3.10
2008,02,14,11,34,3.10
2008,02,14,11,35,3.10
2008,02,14,11,36,3.10
2008,02,14,11,37,3.10
2008,02,14,11,38,3.10
2008,02,14,11,39,3.20
2008,02,14,11,40,3.20
2008,02,14,11,41,3.20
2008,02,14,11,42,3.20
2008,02,14,11,43,3.20
2008,02,14,11,44,3.30
2008,02,14,11,45,3.30
2008,02,14,11,46,3.30
2008,02,14,11,47,3.30
2008,02,14,11,48,3.30
2008,02,14,11,49,3.30
2008,02,14,11,50,3.30
2008,02,14,11,51,3.30
2008,02,14,11,52,3.40
2008,02,14,11,53,3.40
2008,02,14,11,54,3.40
2008,02,14,11,55,3.40
2008,02,14,11,56,3.50
2008,02,14,11,57,3.50
2008,02,14,11,58,3.50
2008,02,14,11,59,3.50
2008,02,14,12,00,3.60
2008,02,14,12,01,3.60
2008,02,14,12,02,3.60
2008,02,14,12,03,3.70
2008,02,14,12,04,3.70
2008,02,14,12,05,3.80
2008,02,14,12,06,3.80
2008,02,14,12,07,3.80
2008,02,14,12,08,3.90
2008,02,14,12,09,3.90
2008,02,14,12,10,4.00
2008,02,14,12,11,4.00
2008,02,14,12,12,4.00
2008,02,14,12,13,4.10
2008,02,14,12,14,4.10
2008,02,14,12,15,4.10
2008,02,14,12,16,4.20
2008,02,14,12,17,4.20
2008,02,14,12,18,4.20
2008,02,14,12,19,4.20
2008,02,14,12,20,4.20
2008,02,14,12,21,4.20
2008,02,14,12,22,4.30
2008,02,14,12,23,4.30
2008,02,14,12,24,4.40
2008,02,14,12,25,4.40
2008,02,14,12,26,4.40
2008,02,14,12,27,4.50
2008,02,14,12,28,4.50
2008,02,14,12,29,4.60
2008,02,14,12,30,4.60
2008,02,14,12,31,4.60
2008,02,14,12,32,4.60
2008,02,14,12,33,4.60
2008,02,14,12,34,4.60
2008,02,14,12,35,4.50
2008,02,14,12,36,4.30
2008,02,14,12,37,4.20
2008,02,14,12,38,4.10
2008,02,14,12,39,4.00
2008,02,14,12,40,4.00
2008,02,14,12,41,4.00
2008,02,14,12,42,4.00
2008,02,14,12,43,3.90
2008,02,14,12,44,3.90
2008,02,14,12,45,3.90
2008,02,14,12,46,3.80
2008,02,14,12,47,3.80
2008,02,14,12,48,3.80
2008,02,14,12,49,3.80
2008,02,14,12,50,3.80
2008,02,14,12,51,3.80
2008,02,14,12,52,3.80
2008,02,14,12,53,3.80
2008,02,14,12,54,3.80
2008,02,14,12,55,3.90
2008,02,14,12,56,4.00
2008,02,14,12,57,4.00
2008,02,14,12,58,4.10
2008,02,14,12,59,4.20
2008,02,14,13,00,4.20
2008,02,14,13,01,4.20
2008,02,14,13,02,4.30
2008,02,14,13,03,4.40
2008,02,14,13,04,4.40
2008,02,14,13,05,4.50
2008,02,14,13,06,4.50
2008,02,14,13,07,4.60
2008,02,14,13,08,4.60
2008,02,14,13,09,4.60
2008,02,14,13,10,4.70
2008,02,14,13,11,4.80
2008,02,14,13,12,4.80
2008,02,14,13,13,4.90
2008,02,14,13,14,4.90
2008,02,14,13,15,5.00
2008,02,14,13,16,5.10
2008,02,14,13,17,5.10
2008,02,14,13,18,5.20
2008,02,14,13,19,5.30
2008,02,14,13,20,5.30
2008,02,14,13,21,5.30
2008,02,14,13,22,5.30
2008,02,14,13,23,5.30
2008,02,14,13,24,5.30
2008,02,14,13,25,5.40
2008,02,14,13,26,5.40
2008,02,14,13,27,5.40
2008,02,14,13,28,5.50
2008,02,14,13,29,5.50
2008,02,14,13,30,5.60
2008,02,14,13,31,5.60
2008,02,14,13,32,5.60
2008,02,14,13,33,5.70
2008,02,14,13,34,5.70
2008,02,14,13,35,5.70
2008,02,14,13,36,5.70
2008,02,14,13,37,5.80
2008,02,14,13,38,5.80
2008,02,14,13,39,5.80
2008,02,14,13,40,5.80
2008,02,14,13,41,5.80
2008,02,14,13,42,5.80
2008,02,14,13,43,5.80
2008,02,14,13,44,5.80
2008,02,14,13,45,5.80
2008,02,14,13,46,5.80
2008,02,14,13,47,5.80
2008,02,14,13,48,5.80
2008,02,14,13,49,5.90
2008,02,14,13,50,5.90
2008,02,14,13,51,5.90
2008,02,14,13,52,6.00
2008,02,14,13,53,6.00
2008,02,14,13,54,6.00
2008,02,14,13,55,6.10
2008,02,14,13,56,6.10
2008,02,14,13,57,6.20
2008,02,14,13,58,6.20
2008,02,14,13,59,6.20
2008,02,14,14,00,6.20
2008,02,14,14,01,6.20
2008,02,14,14,02,6.20
2008,02,14,14,03,6.20
2008,02,14,14,04,6.20
2008,02,14,14,05,6.30
2008,02,14,14,06,6.30
2008,02,14,14,07,6.30
2008,02,14,14,08,6.30
2008,02,14,14,09,6.30
2008,02,14,14,10,6.30
2008,02,14,14,11,6.20
2008,02,14,14,12,6.20
2008,02,14,14,13,6.20
2008,02,14,14,14,6.30
2008,02,14,14,15,6.30
2008,02,14,14,16,6.30
2008,02,14,14,17,6.40
2008,02,14,14,18,6.40
2008,02,14,14,19,6.40
2008,02,14,14,20,6.40
2008,02,14,14,21,6.40
2008,02,14,14,22,6.40
2008,02,14,14,23,6.40
2008,02,14,14,24,6.40
2008,02,14,14,25,6.40
2008,02,14,14,26,6.40
2008,02,14,14,27,6.40
2008,02,14,14,28,6.40
2008,02,14,14,29,6.40
2008,02,14,14,30,6.40
2008,02,14,14,31,6.40
2008,02,14,14,32,6.40
2008,02,14,14,33,6.40
2008,02,14,14,34,6.40
2008,02,14,14,35,6.40
2008,02,14,14,36,6.40
2008,02,14,14,37,6.40
2008,02,14,14,38,6.60
2008,02,14,14,39,6.60
2008,02,14,14,40,6.60
2008,02,14,14,41,6.60
2008,02,14,14,42,6.60
2008,02,14,14,43,6.60
2008,02,14,14,44,6.70
2008,02,14,14,45,6.70
2008,02,14,14,46,6.70
2008,02,14,14,47,6.80
2008,02,14,14,48,6.80
2008,02,14,14,49,6.80
2008,02,14,14,50,6.80
2008,02,14,14,51,6.80
2008,02,14,14,52,6.70
2008,02,14,14,53,6.70
2008,02,14,14,54,6.70
2008,02,14,14,55,6.70
2008,02,14,14,56,6.70
2008,02,14,14,57,6.70
2008,02,14,14,58,6.70
2008,02,14,14,59,6.70
2008,02,14,15,00,6.70
2008,02,14,15,01,6.70
2008,02,14,15,02,6.60
2008,02,14,15,03,6.60
2008,02,14,15,04,6.60
2008,02,14,15,05,6.60
2008,02,14,15,06,6.60
2008,02,14,15,07,6.60
2008,02,14,15,08,6.60
2008,02,14,15,09,6.60
2008,02,14,15,10,6.60
2008,02,14,15,11,6.60
2008,02,14,15,12,6.60
2008,02,14,15,13,6.60
2008,02,14,15,14,6.60
2008,02,14,15,15,6.60
2008,02,14,15,16,6.60
2008,02,14,15,17,6.60
2008,02,14,15,18,6.60
2008,02,14,15,19,6.60
2008,02,14,15,20,6.60
2008,02,14,15,21,6.60
2008,02,14,15,22,6.60
2008,02,14,15,23,6.60
2008,02,14,15,24,6.60
2008,02,14,15,25,6.60
2008,02,14,15,26,6.60
2008,02,14,15,27,6.60
2008,02,14,15,28,6.60
2008,02,14,15,29,6.60
2008,02,14,15,30,6.50
2008,02,14,15,31,6.40
2008,02,14,15,32,6.40
2008,02,14,15,33,6.40
2008,02,14,15,34,6.40
2008,02,14,15,35,6.40
2008,02,14,15,36,6.40
2008,02,14,15,37,6.40
2008,02,14,15,38,6.40
2008,02,14,15,39,6.40
2008,02,14,15,40,6.40
2008,02,14,15,41,6.40
2008,02,14,15,42,6.40
2008,02,14,15,43,6.40
2008,02,14,15,44,6.40
2008,02,14,15,45,6.40
2008,02,14,15,46,6.40
2008,02,14,15,47,6.40
2008,02,14,15,48,6.40
2008,02,14,15,49,6.40
2008,02,14,15,50,6.40
2008,02,14,15,51,6.40
2008,02,14,15,52,6.40
2008,02,14,15,53,6.40
2008,02,14,15,54,6.40
2008,02,14,15,55,6.40
2008,02,14,15,56,6.40
2008,02,14,15,57,6.40
2008,02,14,15,58,6.40
2008,02,14,15,59,6.40
2008,02,14,16,00,6.40
2008,02,14,16,01,6.40
2008,02,14,16,02,6.40
2008,02,14,16,03,6.40
2008,02,14,16,04,6.40
2008,02,14,16,05,6.40
2008,02,14,16,06,6.40
2008,02,14,16,07,6.40
2008,02,14,16,08,6.40
2008,02,14,16,09,6.40
2008,02,14,16,10,6.40
2008,02,14,16,11,6.40
2008,02,14,16,12,6.40
2008,02,14,16,13,6.40
2008,02,14,16,14,6.40
2008,02,14,16,15,6.40
2008,02,14,16,16,6.40
2008,02,14,16,17,6.40
2008,02,14,16,18,6.40
2008,02,14,16,19,6.40
2008,02,14,16,20,6.40
2008,02,14,16,21,6.40
2008,02,14,16,22,6.40
2008,02,14,16,23,6.40
2008,02,14,16,24,6.40
2008,02,14,16,25,6.40
2008,02,14,16,26,6.40
2008,02,14,16,27,6.40
2008,02,14,16,28,6.40
2008,02,14,16,29,6.40
2008,02,14,16,30,6.40
2008,02,14,16,31,6.40
2008,02,14,16,32,6.40
2008,02,14,16,33,6.40
2008,02,14,16,34,6.40
2008,02,14,16,35,6.40
2008,02,14,16,36,6.40
2008,02,14,16,37,6.40
2008,02,14,16,38,6.40
2008,02,14,16,39,6.40
2008,02,14,16,40,6.40
2008,02,14,16,41,6.40
2008,02,14,16,42,6.30
2008,02,14,16,43,6.30
2008,02,14,16,44,6.30
2008,02,14,16,45,6.30
2008,02,14,16,46,6.30
2008,02,14,16,47,6.30
2008,02,14,16,48,6.30
2008,02,14,16,49,6.30
2008,02,14,16,50,6.30
2008,02,14,16,51,6.30
2008,02,14,16,52,6.30
2008,02,14,16,53,6.30
2008,02,14,16,54,6.30
2008,02,14,16,55,6.30
2008,02,14,16,56,6.30
2008,02,14,16,57,6.30
2008,02,14,16,58,6.30
2008,02,14,16,59,6.30
2008,02,14,17,00,6.30
2008,02,14,17,01,6.30
2008,02,14,17,02,6.20
2008,02,14,17,03,6.20
2008,02,14,17,04,6.20
2008,02,14,17,05,6.20
2008,02,14,17,06,6.20
2008,02,14,17,07,6.20
2008,02,14,17,08,6.20
2008,02,14,17,09,6.20
2008,02,14,17,10,6.20
2008,02,14,17,11,6.20
2008,02,14,17,12,6.20
2008,02,14,17,13,6.20
2008,02,14,17,14,6.20
2008,02,14,17,15,6.20
2008,02,14,17,16,6.10
2008,02,14,17,17,6.10
2008,02,14,17,18,6.10
2008,02,14,17,19,6.10
2008,02,14,17,20,6.10
2008,02,14,17,21,6.10
2008,02,14,17,22,6.10
2008,02,14,17,23,6.10
2008,02,14,17,24,6.00
2008,02,14,17,25,6.00
2008,02,14,17,26,6.00
2008,02,14,17,27,6.00
2008,02,14,17,28,6.00
2008,02,14,17,29,6.00
2008,02,14,17,30,6.00
2008,02,14,17,31,6.00
2008,02,14,17,32,6.00
2008,02,14,17,33,5.90
2008,02,14,17,34,5.90
2008,02,14,17,35,5.90
2008,02,14,17,36,5.90
2008,02,14,17,37,5.90
2008,02,14,17,38,5.90
2008,02,14,17,39,5.90
2008,02,14,17,40,5.90
2008,02,14,17,41,5.80
2008,02,14,17,42,5.80
2008,02,14,17,43,5.80
2008,02,14,17,44,5.80
2008,02,14,17,45,5.80
2008,02,14,17,46,5.80
2008,02,14,17,47,5.80
2008,02,14,17,48,5.80
2008,02,14,17,49,5.80
2008,02,14,17,50,5.80
2008,02,14,17,51,5.80
2008,02,14,17,52,5.80